Terminal Aerodrome Forecast
Issued by NWS Quad Cities IA IL

Home | Current Version | Previous Version | Text Only | Print | Product List | Glossary On
Versions: 1 2 3 4 5 6 7 8 9 10 11 12 13 14 15 16 17 18 19 20 21 22 23 24 25 26 27 28 29 30 31 32 33 34 35 36 37 38 39 40 41 42 43 44 45 46 47 48 49 50
000
FTUS43 KDVN 230247 CCA
TAFMLI
TAF COR
KMLI 230247Z 2303/2324 18012G19KT P6SM BKN080 WS018/21040KT
     FM230430 36014G22KT P6SM SCT006 OVC060
     FM230600 32013G23KT 5SM -SHRA BR OVC006
      TEMPO 2306/2308 2SM TSRA BR OVC012CB
     FM231000 30013G21KT 5SM -SHRA BR OVC008
     FM231600 32017G25KT P6SM OVC015=

USA.gov is the U.S. government's official web portal to all federal, state and local government web resources and services.